Regional Weather Roundup
Issued by NWS

Home | Current Version | Previous Version | Text Only | Print | Product List | Glossary Off
Versions: 1 2 3 4 5 6 7 8 9 10 11 12 13 14 15 16 17 18 19 20 21 22 23 24 25 26 27 28 29 30 31 32 33 34 35 36 37 38 39 40 41 42 43 44 45 46 47 48 49 50

816
ASUS43 KDMX 290403
RWRIA

WEATHER ROUNDUP FOR IOWA
NATIONAL WEATHER SERVICE DES MOINES IA
1100 PM CDT SAT MAY 28 2016

NOTE: "FAIR" INDICATES FEW OR NO CLOUDS BELOW 12,000 FEET WITH NO
SIGNIFICANT WEATHER AND/OR OBSTRUCTIONS TO VISIBILITY.

* - THESE STATIONS ARE NOT NWS STATIONS...THUS NOT UNDER NWS
QUALITY CONTROL.  THEY ALSO DO NOT REPORT WEATHER SUCH
AS PRECIPITATION OR FOG.

IAZ001>003-012>014-020>022-031>034-043>046-290500-
   NORTHWEST IOWA

CITY           SKY/WX    TMP DP  RH WIND       PRES   REMARKS
CARROLL *      MOCLDY    63  61  94 W13G20    29.90R
CHEROKEE *     RAIN      61  61 100 W5        29.91R
DENISON *      CLOUDY    63  59  88 W14       29.91R
LE MARS *      CLOUDY    63  59  88 W6        29.94R
ORANGE CITY *  PTCLDY    63  61  94 W6        29.92R
SHELDON *      MOCLDY    63  61  94 W7        29.90R
SIOUX CITY     MOCLDY    62  57  83 W8        29.94R
SPENCER        MOCLDY    61  59  93 NW9       29.89R
STORM LAKE *   CLOUDY    63  61  94 NW12      29.91R
$$

IAZ055>058-069>071-079>083-090>094-290500-
   SOUTHWEST IOWA

CITY           SKY/WX    TMP DP  RH WIND       PRES   REMARKS
ATLANTIC *     CLEAR     63  57  82 W8        29.94R
AUDUBON *      CLEAR     61  57  88 W3        29.93R
CLARINDA *       N/A     63  59  88 MISG      29.97R
COUNCIL BLFS * CLEAR     63  55  77 W8        29.96R
CRESTON *      CLEAR     63  59  88 W7        29.95R
HARLAN  *      PTCLDY    61  57  88 W10       29.97R
LAMONI         PTCLDY    63  59  87 SW9       29.95R
RED OAK *      PTCLDY    66  57  72 W7        29.96R
SHENANDOAH *   CLEAR     64  63  94 CALM      29.97R
$$

IAZ047>049-059>061-072>074-084-290500-
   CENTRAL IOWA

CITY           SKY/WX    TMP DP  RH WIND       PRES   REMARKS
AMES           PTCLDY    64  58  80 W15       29.87R
ANKENY *       CLEAR     66  57  72 W6        29.89R
BOONE *        CLOUDY    63  59  88 W14G24    29.87R
CHARITON *     CLEAR     64  61  88 SW8       29.93R
DES MOINES     PTCLDY    66  55  67 SW9       29.89R
GRINNELL*      CLEAR     64  59  82 SW10      29.90R
KNOXVILLE *    CLEAR     66  59  77 SW10      29.90R
MARSHALLTOWN   CLOUDY    64  59  83 SW10      29.86R
NEWTON *       PTCLDY    64  63  94 SW10      29.89R
PELLA *        CLEAR     65  59  79 SW8       29.92R
PERRY *        MOCLDY    64  59  83 SW13      29.89R
$$

IAZ004>006-015-016-023>025-035-036-290500-
   NORTH CENTRAL IOWA

CITY           SKY/WX    TMP DP  RH WIND       PRES   REMARKS
ALGONA *       CLOUDY    63  61  94 NW5       29.86R
CLARION *      CLOUDY    63  63 100 SW6       29.84R
ESTHERVILLE    LGT RAIN  61  60  97 NW8       29.87R
FORT DODGE *   CLOUDY    63  57  82 NW3       29.86R
MASON CITY     CLOUDY    63  60  90 SW6       29.84R
FOREST CITY *  MOCLDY    59  59 100 W3        29.84R
WEBSTER CITY * CLEAR     63  63 100 SW14      29.83R
IOWA FALLS *   CLOUDY    64  59  82 SW10      29.86R
$$

IAZ007>011-017>019-026>030-037>042-050>054-066-290500-
   NORTHEAST IOWA

CITY           SKY/WX    TMP DP  RH WIND       PRES   REMARKS
CEDAR RAPIDS   CLEAR     66  62  87 S12       29.88R
CHARLES CITY * CLOUDY    64  64 100 SW8       29.84R
CLINTON *      PTCLDY    67  60  78 SW10      29.92R
DECORAH *      PTCLDY    63  63 100 S5        29.83S
DUBUQUE        PTCLDY    65  60  84 SW8       29.89R
MONTICELLO *   CLEAR     66  61  82 S8        29.88S
OELWEIN *      MOCLDY    64  63  94 S10       29.86S
WATERLOO       CLEAR     65  57  75 SW10      29.84R
$$

IAZ064-065-067-068-078-290500-
   EAST CENTRAL IOWA

CITY           SKY/WX    TMP DP  RH WIND       PRES   REMARKS
DAVENPORT      CLOUDY    69  59  70 SW9       29.92R
IOWA CITY      CLEAR     68  60  75 SW8       29.91R
MT. PLEASANT * CLOUDY    68  63  83 SW7       29.93S
MUSCATINE *    CLOUDY    68  61  77 SW8       29.91S
QUAD CITIES    PTCLDY    71  59  65 SW8       29.91R
$$

IAZ062-063-075>077-085>089-095>099-290500-
   SOUTHEAST IOWA

CITY           SKY/WX    TMP DP  RH WIND       PRES   REMARKS
BURLINGTON     PTCLDY    69  61  75 SW9       29.93R
FAIRFIELD *      N/A    N/A N/A N/A MISG        N/A
FORT MADISON * CLOUDY    68  61  77 SW9       29.95S
KEOKUK *       CLOUDY    68  61  77 SW7       29.95R
OSKALOOSA *      N/A     66  59  77 SW13      29.92R
OTTUMWA        CLEAR     67  60  78 S12       29.92R
WASHINGTON *   CLEAR     66 N/A N/A SW10      29.93S
$$

ABBREVIATIONS USED IN REMARKS
   TC - TEMPERATURES IN CELSIUS
  WCI - WIND CHILL INDEX
   HX - HEAT INDEX
  VSB - VISIBILITY
$$





USA.gov is the U.S. government's official web portal to all federal, state and local government web resources and services.